Location: Fort Worth, Tx
(32.7431°N, 97.3695°W)
Time: 17:43:58
(UTC-04:00)

Altair - Pass Details

Date: 04 October 2023
Orbit: 1501 x 1682 km, 47.2° (Epoch: 06 October)

Event Time Altitude Azimuth Distance (km) Brightness Sun altitude
Rises 00:59:53 0° 193° (SSW) 4,658 - -56.1°
Reaches altitude 10° 01:03:25 10° 182° (S) 3,699 - -56.6°
Maximum altitude 01:11:03 29° 127° (SE) 2,577 - -57.5°
Drops below altitude 10° 01:18:54 10° 72° (ENE) 3,827 - -58.3°
Sets 01:22:35 0° 62° (ENE) 4,843 - -58.7°
